sat.trackr.live / text

‹ back to catalog

STARLINK-35167

NORAD 65736 · 2025-216C

PAYLOAD ACTIVE UNKNOWN

§ Identity

Operator
Country
US
Launch date
2025-09-25
Launch site
AFETR
Launch vehicle
Mass (kg)
RCS (m²)

Purposes: comms

External: N2YO · Heavens-Above · Gunter

§ Orbital elements

Epoch: 2026-09-20T23:20:34.516608Z

Period
93.85 min
Inclination
53.1609°
Eccentricity
0.0002126
Mean motion
15.34416893 rev/d
Perigee alt
461.2 km
Apogee alt
464.1 km
Semi-major
6,840.8 km
B*
6.2786e-4
RAAN
143.5992°
Arg perigee
81.9184°
Mean anomaly
278.2060°
Rev number
5,647

§ Raw data

STARLINK-351671 65736U 25216C   26263.97262172  .00020908  00000+0  62786-3 0  99982 65736  53.1609 143.5992 0002126  81.9184 278.2060 15.34416893 56479

JSON: /api/v1/satellites/65736 · /tle

For live sub-satellite position, see the globe view (requires WebGL).

§ Visibility from observer

Set your observer location to see the next 7 days of passes ≥ 10°. The values pass through the URL so the page stays shareable.

No JS? Fill the form by hand. The geolocation button needs JavaScript.